"Pseudo-MPEC" for CFPG7NZ

Created 2024 Sep 10 17:22:08 UT using Find_Orb

Click here for an explanation of pseudo-MPECs

 
 Astrometry: 
     CFPG7NZ*0C2024 08 31.23482216 05 50.082+53 23 17.70   ~95Hb 22.39GVNEOCPG96
     CFPG7NZ 0C2024 08 31.24005816 05 49.225+53 23 13.88   ~95Hb 20.71GVNEOCPG96
     CFPG7NZ 0C2024 08 31.24530116 05 48.563+53 23 09.24   ~95Hb 22.33GVNEOCPG96
     CFPG7NZ 0C2024 08 31.25053716 05 47.911+53 23 05.39   ~95Hb 22.30GVNEOCPG96

Station data:
(G96) Mt. Lemmon Survey  (N32.442729 W110.788720)  US/Arizona.  Observer A.
   Zooniverse. 1.5-m reflector + 10K CCD.

Orbital elements:  CFPG7NZ
   Perihelion 2024 Nov 16.49885 +/- 42.5 TT = 11:58:20 (JD 2460630.99885)
Epoch 2024 Aug 31.0 TT = JDT 2460553.5   Earth MOID: 0.4047      AutoNEOCP
M 297.04395058 +/- 41               (J2000 ecliptic)
n   0.81234816 +/- 0.493            Peri.  197.10769 +/- 59
a   1.13756070 +/- 0.461            Node   253.13597 +/- 45
e   0.4995384 +/- 0.272             Incl.   42.33439 +/- 24
P   1.213/443.151d         H 20.28  G  0.15   U 12.3  SR
q 0.56930539 +/- 0.35    Q 1.70581601 +/- 14.8
From 4 observations 2024 Aug. 31 (22.6 min); mean residual 0".37
Residuals in arcseconds: 
240831 G96  .54+  .09-    240831 G96  .20-  .24-    
240831 G96  .70-  .24+    240831 G96  .37+  .07+    

Ephemerides (geocentric):
Date (UTC) HH   RA             Dec           delta  r     elong  mag " sig PA
---- --------  ------------   ------------  ------ ------ -----  --- --------
2024 09 10 17  15 44 53.306   +51 03 46.00  .77358 1.0648  72.1 22.1  20d 135
2024 09 10 18  15 44 48.780   +51 03 10.71  .77345 1.0645  72.1 22.1  20d 135
2024 09 10 19  15 44 44.256   +51 02 35.39  .77333 1.0641  72.1 22.1  20d 135
2024 09 10 20  15 44 39.734   +51 02 00.06  .77320 1.0638  72.0 22.1  20d 135
2024 09 10 21  15 44 35.215   +51 01 24.71  .77308 1.0634  72.0 22.1  21d 135
2024 09 10 22  15 44 30.698   +51 00 49.35  .77295 1.0630  72.0 22.1  21d 135
2024 09 10 23  15 44 26.184   +51 00 13.97  .77282 1.0627  72.0 22.1  21d 134
2024 09 11 00  15 44 21.672   +50 59 38.57  .77270 1.0623  72.0 22.1  21d 134
2024 09 11 01  15 44 17.162   +50 59 03.15  .77257 1.0620  71.9 22.1  21d 134
2024 09 11 02  15 44 12.655   +50 58 27.72  .77244 1.0616  71.9 22.1  21d 134
2024 09 11 03  15 44 08.150   +50 57 52.28  .77232 1.0613  71.9 22.1  21d 134
2024 09 11 04  15 44 03.647   +50 57 16.81  .77219 1.0609  71.9 22.1  21d 134
2024 09 11 05  15 43 59.147   +50 56 41.33  .77206 1.0606  71.8 22.1  21d 134
2024 09 11 06  15 43 54.649   +50 56 05.83  .77193 1.0602  71.8 22.1  21d 134
2024 09 11 07  15 43 50.153   +50 55 30.32  .77180 1.0598  71.8 22.1  21d 134
2024 09 11 08  15 43 45.660   +50 54 54.79  .77168 1.0595  71.8 22.1  21d 134
2024 09 11 09  15 43 41.168   +50 54 19.24  .77155 1.0591  71.7 22.1  21d 134
2024 09 11 10  15 43 36.679   +50 53 43.68  .77142 1.0588  71.7 22.1  21d 134
2024 09 11 11  15 43 32.193   +50 53 08.09  .77129 1.0584  71.7 22.1  21d 134
2024 09 11 12  15 43 27.708   +50 52 32.50  .77116 1.0581  71.7 22.1  21d 134
2024 09 11 13  15 43 23.226   +50 51 56.88  .77103 1.0577  71.6 22.1  21d 133
2024 09 11 14  15 43 18.745   +50 51 21.25  .77090 1.0573  71.6 22.1  21d 133
2024 09 11 15  15 43 14.267   +50 50 45.60  .77077 1.0570  71.6 22.1  21d 133
2024 09 11 16  15 43 09.791   +50 50 09.93  .77064 1.0566  71.6 22.1  21d 133
2024 09 11 17  15 43 05.317   +50 49 34.24  .77050 1.0563  71.5 22.1  21d 133
2024 09 11 18  15 43 00.845   +50 48 58.54  .77037 1.0559  71.5 22.1  21d 133
2024 09 11 19  15 42 56.376   +50 48 22.82  .77024 1.0555  71.5 22.1  21d 133
2024 09 11 20  15 42 51.908   +50 47 47.09  .77011 1.0552  71.5 22.1  21d 133
2024 09 11 21  15 42 47.442   +50 47 11.33  .76998 1.0548  71.4 22.1  21d 133
2024 09 11 22  15 42 42.979   +50 46 35.56  .76984 1.0545  71.4 22.1  21d 133
2024 09 11 23  15 42 38.517   +50 45 59.77  .76971 1.0541  71.4 22.1  21d 133
2024 09 12 00  15 42 34.057   +50 45 23.97  .76958 1.0538  71.4 22.1  21d 133
2024 09 12 01  15 42 29.600   +50 44 48.14  .76944 1.0534  71.3 22.1  21d 133
2024 09 12 02  15 42 25.144   +50 44 12.30  .76931 1.0530  71.3 22.1  21d 133
2024 09 12 03  15 42 20.690   +50 43 36.44  .76917 1.0527  71.3 22.1  21d 133
2024 09 12 04  15 42 16.239   +50 43 00.56  .76904 1.0523  71.3 22.1  21d 133
2024 09 12 05  15 42 11.789   +50 42 24.67  .76890 1.0520  71.3 22.1  21d 133
2024 09 12 06  15 42 07.341   +50 41 48.76  .76877 1.0516  71.2 22.1  21d 133
2024 09 12 07  15 42 02.895   +50 41 12.83  .76863 1.0512  71.2 22.1  21d 133
2024 09 12 08  15 41 58.451   +50 40 36.88  .76850 1.0509  71.2 22.1  21d 132
2024 09 12 09  15 41 54.008   +50 40 00.91  .76836 1.0505  71.2 22.1  21d 132
2024 09 12 10  15 41 49.568   +50 39 24.93  .76822 1.0502  71.1 22.1  21d 132
2024 09 12 11  15 41 45.129   +50 38 48.92  .76809 1.0498  71.1 22.1  21d 132
2024 09 12 12  15 41 40.692   +50 38 12.90  .76795 1.0494  71.1 22.1  21d 132
2024 09 12 13  15 41 36.257   +50 37 36.86  .76781 1.0491  71.1 22.1  21d 132
2024 09 12 14  15 41 31.823   +50 37 00.81  .76767 1.0487  71.0 22.1  21d 132
2024 09 12 15  15 41 27.392   +50 36 24.73  .76754 1.0484  71.0 22.1  21d 132
2024 09 12 16  15 41 22.962   +50 35 48.64  .76740 1.0480  71.0 22.1  21d 132